Temperature
-0 -0 -0 -0 -1 -1 -1 -1 -1 -1 -0 -0 -0 -0 -0 -0 -0 -0 -0 0 -0 0 0 0 0 0 0 0 0 0 0 0 0 1 1 1 2 2 2 2 2 3 3
-1 -1 -1 -1 -1 -1 -1 -1 -1 -1 -1 -1 -1 -1 -1 -1 -1 -1 -0 -0 -1 -1 -0 -0 -0 -0 -0 -0 -0 -0 -0 -0 -0 -0 0 0 1 1 1 2 2 2 2
-1 -2 -2 -2 -2 -2 -2 -2 -2 -2 -1 -1 -1 -1 -1 -1 -1 -1 -1 -1 -1 -1 -1 -1 -1 -1 -1 -1 -1 -1 -1 -1 -1 -1 -0 -0 0 0 1 1 1 1 1
-2 -2 -2 -2 -2 -2 -2 -2 -2 -2 -2 -2 -2 -2 -2 -2 -2 -2 -2 -2 -2 -2 -2 -2 -2 -2 -2 -2 -2 -2 -2 -2 -1 -1 -1 -1 -1 -1 -0 -0 0 0 1
-3 -3 -3 -3 -3 -3 -3 -3 -3 -3 -3 -2 -2 -2 -2 -2 -2 -2 -3 -2 -3 -3 -3 -2 -2 -2 -2 -2 -2 -2 -2 -2 -2 -2 -2 -2 -1 -1 -1 -1 -1 -0 -0
-3 -3 -3 -3 -3 -3 -3 -4 -3 -3 -3 -3 -3 -3 -3 -3 -3 -3 -3 -3 -3 -3 -3 -3 -3 -3 -3 -3 -3 -3 -3 -3 -3 -3 -3 -2 -2 -2 -2 -2 -2 -1 -1
-4 -4 -4 -4 -4 -4 -4 -4 -4 -4 -4 -4 -4 -4 -4 -4 -4 -4 -4 -4 -4 -4 -4 -4 -4 -4 -4 -4 -4 -4 -4 -4 -3 -3 -3 -3 -3 -3 -3 -2 -2 -2 -2
-4 -4 -4 -5 -5 -5 -5 -5 -5 -5 -5 -5 -5 -5 -5 -4 -5 -5 -5 -5 -5 -5 -5 -5 -5 -5 -4 -5 -5 -4 -4 -4 -4 -4 -4 -4 -3 -3 -3 -3 -3 -3 -3
-5 -5 -5 -5 -5 -5 -5 -5 -5 -5 -5 -5 -6 -5 -5 -5 -5 -5 -6 -6 -6 -6 -6 -6 -5 -5 -5 -5 -5 -5 -5 -4 -4 -4 -4 -4 -4 -4 -4 -4 -4 -4 -4
-6 -6 -6 -6 -6 -6 -6 -6 -6 -6 -6 -6 -6 -6 -6 -6 -6 -6 -6 -7 -7 -6 -6 -6 -6 -6 -6 -6 -6 -6 -5 -5 -5 -5 -5 -4 -4 -4 -4 -4 -4 -4 -4
-6 -6 -6 -7 -7 -7 -7 -7 -7 -7 -7 -7 -7 -7 -7 -7 -7 -7 -7 -7 -7 -7 -7 -7 -6 -6 -6 -6 -6 -6 -6 -6 -5 -5 -5 -5 -5 -5 -5 -5 -5 -5 -5
-7 -7 -7 -7 -7 -7 -7 -7 -7 -7 -7 -8 -8 -8 -7 -7 -7 -7 -7 -7 -7 -7 -7 -7 -7 -7 -6 -6 -6 -6 -6 -6 -6 -6 -6 -6 -6 -5 -5 -5 -5 -5 -5
-7 -7 -8 -8 -8 -8 -8 -8 -8 -8 -8 -8 -9 -8 -8 -8 -8 -8 -8 -8 -8 -8 -8 -7 -7 -7 -7 -7 -7 -7 -7 -7 -7 -7 -7 -6 -6 -6 -6 -6 -6 -5 -5
-8 -8 -8 -8 -8 -8 -8 -9 -9 -9 -9 -9 -9 -9 -9 -9 -9 -8 -8 -8 -8 -8 -8 -8 -8 -8 -8 -8 -8 -7 -7 -7 -7 -7 -7 -7 -7 -7 -7 -6 -6 -6 -6
-9 -9 -9 -9 -9 -9 -9 -9 -9 -9 -9 -9 -9 -10 -10 -9 -9 -9 -9 -9 -9 -9 -9 -8 -8 -8 -8 -8 -8 -8 -8 -8 -8 -8 -8 -8 -8 -8 -7 -7 -7 -7 -7
-9 -9 -9 -9 -9 -10 -10 -9 -9 -10 -10 -10 -10 -10 -10 -10 -10 -10 -9 -9 -10 -9 -9 -9 -9 -9 -9 -9 -9 -9 -9 -9 -8 -8 -8 -8 -8 -8 -8 -8 -8 -8 -8
-9 -10 -10 -10 -10 -10 -10 -10 -10 -10 -10 -10 -10 -10 -10 -10 -10 -10 -10 -10 -10 -10 -10 -10 -10 -10 -9 -9 -9 -9 -9 -9 -9 -9 -9 -9 -9 -9 -9 -9 -9 -8 -8
-10 -10 -10 -10 -10 -10 -11 -11 -11 -10 -10 -10 -10 -10 -10 -10 -11 -10 -10 -10 -10 -10 -11 -11 -11 -10 -10 -10 -10 -10 -10 -10 -10 -10 -10 -9 -9 -9 -9 -9 -9 -9 -9
-10 -10 -11 -11 -11 -11 -11 -11 -11 -11 -11 -11 -11 -11 -11 -11 -11 -11 -11 -11 -11 -11 -11 -11 -11 -11 -11 -11 -11 -11 -11 -11 -11 -10 -10 -10 -10 -10 -10 -9 -9 -9 -9
-11 -11 -11 -11 -11 -11 -11 -11 -11 -11 -11 -12 -11 -11 -11 -11 -11 -11 -11 -11 -12 -12 -12 -12 -12 -12 -12 -11 -11 -11 -11 -11 -11 -11 -11 -11 -10 -10 -10 -10 -10 -9 -9
-11 -11 -11 -12 -12 -12 -12 -12 -12 -12 -12 -12 -12 -12 -12 -12 -12 -12 -12 -12 -12 -12 -12 -12 -12 -12 -12 -12 -12 -12 -11 -11 -11 -11 -11 -11 -11 -10 -10 -10 -10 -10 -10
-12 -12 -12 -12 -12 -12 -12 -12 -12 -13 -12 -13 -12 -12 -12 -12 -12 -12 -12 -12 -12 -12 -12 -12 -12 -12 -12 -12 -12 -12 -12 -12 -11 -11 -11 -11 -11 -11 -11 -10 -10 -10 -10
-12 -12 -12 -13 -13 -13 -13 -13 -13 -13 -13 -13 -13 -13 -13 -13 -13 -13 -13 -13 -12 -12 -12 -12 -12 -12 -12 -12 -12 -12 -12 -12 -12 -12 -12 -11 -11 -11 -11 -11 -11 -11 -10
-13 -13 -13 -13 -13 -13 -13 -13 -13 -13 -13 -13 -13 -13 -13 -13 -13 -13 -13 -13 -13 -13 -13 -13 -12 -12 -12 -12 -12 -12 -12 -12 -12 -12 -12 -12 -12 -11 -11 -11 -11 -11 -11
-13 -13 -13 -13 -13 -13 -13 -14 -14 -14 -14 -14 -14 -14 -14 -14 -14 -13 -13 -13 -13 -13 -13 -13 -13 -13 -12 -12 -12 -12 -12 -12 -12 -12 -12 -12 -12 -12 -12 -11 -11 -11 -11
-13 -13 -13 -13 -14 -14 -14 -14 -14 -14 -14 -14 -14 -14 -14 -14 -14 -14 -14 -14 -14 -13 -13 -13 -13 -13 -13 -12 -12 -12 -12 -12 -12 -12 -12 -12 -12 -12 -12 -12 -12 -12 -12
Wind_Speed
4 4 4 4 5 5 5 6 6 6 6 6 7 7 7 7 7 7 8 8 9 9 8 9 9 8 8 8 8 9 9 9 11 10 8 8 10 9 9 10 11 11 11
4 3 4 4 4 4 5 5 5 5 5 6 6 6 7 7 7 8 8 8 9 9 9 9 9 8 9 8 8 10 9 10 10 12 10 9 10 9 9 9 9 9 10
3 3 4 4 4 4 4 5 5 5 5 5 5 6 6 6 6 7 8 8 8 8 8 9 9 9 9 8 9 9 9 9 9 10 11 9 8 8 8 8 9 8 9
3 3 4 4 4 4 4 4 5 5 5 5 5 5 6 6 6 6 7 8 8 8 8 9 9 10 10 9 9 9 9 9 9 9 10 9 8 8 7 8 8 7 7
3 3 4 4 4 4 4 4 4 5 5 5 5 5 6 5 6 6 7 7 7 8 8 8 8 9 10 9 8 9 9 9 9 9 9 9 8 7 7 7 8 8 8
3 4 4 4 4 4 4 4 4 4 5 4 5 5 5 5 5 7 7 7 7 7 7 7 7 8 9 11 12 12 12 11 10 9 9 10 11 10 9 8 8 8 8
3 4 4 4 4 4 4 4 5 5 5 5 5 5 5 6 7 7 7 6 7 7 7 7 7 7 8 8 10 11 12 13 13 12 12 13 12 11 10 10 10 10 10
3 4 4 4 4 4 4 5 5 5 5 5 5 5 6 6 6 7 7 6 6 7 7 8 8 8 8 8 9 10 11 11 11 11 12 13 12 11 11 11 11 11 11
4 4 4 4 4 4 4 5 5 5 5 5 5 6 6 6 6 7 7 5 5 7 7 8 8 9 9 10 10 10 11 10 10 12 14 15 16 16 13 9 10 9 10
4 5 5 4 4 5 5 5 5 4 5 5 5 5 6 6 7 7 7 5 6 6 6 7 8 9 10 11 10 10 11 11 9 9 10 12 13 13 14 12 11 10 9
5 5 5 4 5 5 5 4 4 4 4 5 5 5 5 6 7 7 7 5 6 6 6 6 6 9 11 12 11 10 11 10 9 9 9 9 9 8 9 10 10 10 10
4 4 4 4 4 4 4 4 4 4 4 5 5 5 5 5 6 6 7 7 8 7 7 7 7 9 11 11 10 10 12 10 8 7 7 8 8 8 7 8 10 10 11
4 4 4 4 4 4 4 4 4 4 4 4 4 5 5 5 5 7 8 8 9 7 7 9 10 10 10 9 9 10 9 7 7 7 7 7 7 7 7 7 8 9 9
4 4 4 4 4 4 4 4 4 4 4 4 5 5 5 5 5 5 5 5 6 6 6 7 9 10 8 8 8 7 6 6 6 7 7 7 6 6 6 6 6 6 7
4 4 4 4 4 4 4 4 5 5 5 5 5 6 6 6 6 8 6 5 5 5 6 5 5 5 5 5 5 5 5 5 6 7 7 7 7 7 7 6 6 6 7
4 4 3 3 4 4 4 5 6 6 8 9 9 8 7 9 11 10 9 9 8 8 6 5 5 5 5 5 5 5 5 6 6 6 6 6 7 7 6 6 5 6 7
4 4 4 4 4 4 4 4 5 5 7 8 9 10 10 10 11 10 10 9 8 7 5 5 5 5 5 5 5 6 6 6 6 6 6 6 6 6 6 6 6 6 6
5 5 5 4 4 4 5 5 5 5 6 6 6 8 9 10 10 10 10 8 6 5 5 5 5 5 6 6 6 6 6 6 6 6 6 6 6 6 6 7 7 7 7
4 4 4 4 4 4 5 5 5 5 5 6 6 6 8 9 10 9 8 5 5 5 5 5 5 5 6 6 6 6 6 6 6 6 6 6 6 6 7 7 7 8 7
4 6 5 4 4 4 4 4 5 5 5 6 6 6 6 6 5 6 5 5 5 6 6 6 6 6 6 6 6 6 6 6 6 6 6 6 6 6 7 8 7 6 6
4 4 6 5 4 4 4 4 5 5 5 6 6 7 8 6 6 6 5 5 5 6 6 6 6 6 6 6 6 7 7 6 6 6 6 6 6 6 6 6 7 6 6
4 4 4 4 4 4 5 5 5 5 5 6 6 6 9 6 5 6 6 6 6 6 6 6 6 6 6 6 6 7 7 7 7 6 6 6 6 6 6 5 5 5 5
4 4 4 4 4 5 5 5 5 5 5 6 6 6 5 5 6 6 6 7 6 6 6 6 6 6 6 6 7 7 7 7 7 7 6 6 6 6 5 5 6 6 6
4 4 4 4 4 4 5 5 5 5 5 6 6 5 6 6 6 7 7 7 6 6 6 6 7 8 9 8 7 8 8 8 8 7 8 7 6 6 5 5 5 6 5
4 4 4 4 4 5 5 5 5 5 5 6 6 6 6 6 6 7 7 6 7 7 7 7 7 7 9 10 9 9 10 11 10 8 7 6 7 6 6 5 5 5 5
4 4 4 4 4 5 5 5 5 6 6 6 6 6 6 6 7 7 6 6 6 6 7 7 8 9 10 9 10 11 11 11 10 9 7 6 6 5 5 5 5 5 5
Wind_Direction
259 258 263 269 271 268 265 268 271 272 271 266 261 255 251 250 249 246 244 243 246 247 244 242 244 245 243 243 244 244 242 245 254 265 266 269 269 268 273 272 271 272 267
272 269 269 276 278 281 282 283 282 279 278 271 265 258 253 251 248 248 246 245 246 246 246 246 247 245 245 246 247 247 245 244 248 260 266 267 269 269 272 273 276 274 272
277 274 275 276 279 286 293 294 290 286 285 279 267 263 258 255 253 253 250 247 247 248 248 247 248 246 247 247 247 251 253 251 248 254 264 269 271 269 273 275 275 274 276
280 275 277 283 285 287 290 291 293 293 289 281 273 268 263 258 256 257 257 251 253 254 253 251 250 247 249 248 250 251 252 255 253 253 259 266 268 270 268 271 275 274 276
279 278 284 288 292 293 292 294 298 295 290 286 281 275 271 263 255 253 259 255 256 259 259 256 255 255 257 256 253 253 251 252 254 254 258 264 265 265 263 267 270 278 277
279 281 288 294 300 299 297 300 298 294 291 290 283 279 276 270 273 268 267 262 261 260 262 263 262 259 257 258 258 261 259 255 256 255 258 258 261 264 265 265 269 274 275
284 288 292 297 300 300 299 299 296 295 294 291 287 286 278 277 280 277 275 267 263 265 265 264 264 262 261 260 263 262 262 260 258 259 260 260 262 263 263 262 262 264 268
289 291 296 297 298 300 297 296 299 299 295 292 290 286 277 278 285 286 283 272 267 267 266 265 265 265 264 264 265 265 263 261 259 257 258 262 262 263 260 260 264 268 272
293 295 296 294 294 295 294 296 301 300 298 296 290 290 284 281 285 287 284 277 272 272 271 269 267 266 269 268 266 266 266 266 267 260 261 265 266 263 261 260 258 260 267
299 298 297 293 290 290 293 297 297 295 295 298 296 294 291 283 286 288 285 275 275 278 278 275 270 269 273 273 266 265 265 268 270 271 267 266 265 262 257 249 250 252 262
301 298 296 293 291 292 297 296 297 297 299 300 298 295 293 293 284 283 287 278 276 279 279 278 276 276 274 274 273 268 267 272 274 273 271 267 264 261 257 254 251 249 253
301 297 296 296 298 299 299 301 301 302 302 303 303 304 303 300 297 287 286 284 281 277 277 279 280 284 283 280 275 272 273 275 273 271 269 266 264 261 259 258 254 251 252
298 297 299 301 299 299 295 296 298 297 295 299 301 304 305 303 299 297 292 287 285 282 281 284 287 289 288 283 279 278 276 269 265 265 266 267 268 267 264 261 256 252 253
292 296 298 298 298 297 292 289 289 289 290 293 296 296 298 300 298 298 297 293 290 288 287 285 286 285 282 282 283 279 270 266 262 262 266 269 271 268 264 262 260 256 254
289 293 295 294 294 296 294 287 283 279 280 285 288 287 290 294 299 305 301 296 296 291 293 287 285 286 285 281 282 282 277 270 264 261 264 266 265 264 263 261 259 261 257
286 291 291 293 294 294 296 298 290 284 290 288 288 290 291 294 303 304 304 301 302 299 294 286 288 287 284 284 284 285 281 275 269 265 263 261 262 261 263 264 260 255 255
279 283 284 286 286 288 290 294 302 305 295 290 291 293 294 300 303 305 307 305 303 300 287 282 283 285 285 284 283 281 279 278 275 269 267 265 264 263 263 260 255 254 256
280 279 282 282 282 283 285 288 291 297 303 304 301 297 300 301 301 303 303 302 298 295 283 280 280 283 284 283 281 279 279 279 275 270 267 266 264 261 259 257 253 252 255
282 283 285 285 283 283 286 288 288 289 293 299 305 308 310 307 304 303 302 290 287 286 284 281 280 281 282 281 280 277 275 275 273 269 267 265 264 262 258 257 255 253 254
282 287 292 290 287 288 288 288 289 291 293 295 298 303 309 308 303 303 297 288 283 284 283 281 280 278 277 277 277 276 274 271 270 266 266 266 264 263 261 259 256 253 251
289 290 292 291 287 287 287 287 288 290 293 295 296 299 305 302 298 297 295 290 286 284 282 282 280 279 274 272 271 271 270 269 268 267 266 265 266 265 264 260 255 251 251
288 289 288 288 289 290 293 292 292 292 294 295 300 304 308 302 298 295 295 293 288 284 281 279 278 277 274 270 268 267 266 265 265 264 266 267 267 265 262 260 258 251 244
285 287 288 288 289 293 295 293 292 292 294 295 298 301 302 300 299 297 295 296 294 289 285 279 277 277 277 274 269 264 263 263 263 263 265 266 265 264 261 257 255 254 247
281 283 285 287 288 289 290 291 292 292 294 295 296 297 298 298 297 296 296 296 294 292 291 287 281 279 281 280 276 270 265 264 264 259 257 259 261 260 256 252 252 251 252
281 282 284 285 286 287 289 289 290 292 293 294 295 296 297 298 297 298 298 296 295 293 293 293 289 285 282 281 280 277 276 276 272 262 253 249 251 250 251 252 250 250 248
289 288 287 287 286 287 287 288 289 291 291 292 293 294 295 296 297 298 298 297 297 296 294 293 291 290 288 286 283 284 284 282 277 268 252 244 246 246 244 240 240 239 243
Height
1473 1472 1472 1471 1471 1470 1469 1469 1468 1467 1467 1466 1466 1466 1466 1466 1467 1467 1467 1467 1468 1469 1469 1470 1471 1472 1473 1474 1474 1474 1475 1475 1473 1472 1474 1474 1475 1474 1474 1474 1474 1474 1473
1469 1468 1468 1467 1466 1465 1464 1463 1463 1462 1461 1461 1461 1460 1460 1460 1461 1461 1461 1461 1462 1462 1462 1463 1464 1465 1466 1466 1467 1467 1467 1468 1467 1465 1466 1467 1467 1468 1467 1467 1467 1466 1466
1465 1464 1463 1462 1461 1460 1459 1459 1458 1456 1456 1455 1455 1454 1455 1455 1454 1454 1455 1455 1455 1455 1456 1456 1457 1458 1458 1459 1460 1460 1460 1461 1461 1460 1458 1460 1460 1461 1460 1460 1460 1459 1459
1462 1461 1459 1459 1458 1456 1455 1454 1453 1452 1451 1450 1449 1449 1449 1449 1448 1448 1449 1449 1449 1449 1449 1450 1450 1451 1452 1453 1453 1453 1454 1454 1454 1453 1452 1453 1453 1453 1454 1453 1452 1452 1451
1458 1457 1456 1455 1454 1452 1451 1450 1448 1447 1446 1445 1444 1444 1443 1443 1443 1443 1443 1442 1442 1442 1442 1443 1443 1444 1445 1446 1446 1446 1447 1447 1447 1446 1446 1446 1446 1447 1447 1447 1446 1445 1445
1455 1454 1453 1451 1449 1448 1447 1445 1444 1443 1442 1441 1440 1439 1437 1437 1437 1437 1437 1436 1436 1436 1436 1436 1437 1437 1437 1438 1439 1440 1440 1440 1440 1440 1439 1439 1439 1441 1442 1441 1440 1439 1438
1452 1451 1449 1447 1446 1444 1443 1442 1441 1439 1438 1436 1435 1433 1432 1432 1433 1432 1431 1430 1430 1430 1430 1430 1430 1431 1431 1431 1432 1433 1433 1433 1434 1434 1432 1432 1433 1434 1435 1434 1433 1433 1432
1448 1447 1445 1444 1442 1441 1440 1438 1437 1435 1433 1432 1430 1429 1428 1427 1427 1426 1425 1425 1424 1424 1424 1425 1424 1424 1425 1425 1426 1425 1425 1426 1426 1427 1426 1426 1427 1428 1428 1427 1427 1426 1425
1445 1444 1442 1441 1439 1437 1436 1434 1433 1431 1429 1427 1425 1424 1422 1422 1422 1421 1420 1419 1419 1419 1419 1419 1418 1418 1418 1419 1419 1418 1418 1418 1419 1419 1419 1419 1419 1420 1420 1420 1420 1419 1417
1442 1440 1439 1438 1436 1434 1432 1431 1429 1428 1425 1423 1421 1419 1418 1417 1417 1416 1416 1415 1414 1414 1413 1413 1412 1412 1412 1413 1412 1412 1411 1411 1411 1411 1411 1411 1412 1411 1412 1413 1413 1412 1410
1439 1437 1436 1434 1433 1431 1429 1428 1426 1424 1422 1420 1418 1417 1415 1414 1413 1412 1412 1411 1410 1409 1408 1407 1407 1407 1407 1407 1406 1406 1405 1405 1405 1404 1404 1404 1404 1404 1404 1404 1405 1405 1404
1436 1434 1433 1431 1430 1428 1426 1424 1422 1420 1418 1416 1414 1412 1411 1410 1409 1408 1408 1407 1406 1404 1403 1402 1402 1402 1401 1400 1400 1399 1399 1399 1398 1398 1397 1396 1396 1396 1396 1396 1396 1396 1396
1432 1431 1429 1428 1426 1425 1423 1421 1419 1417 1416 1414 1412 1409 1408 1407 1405 1404 1403 1402 1401 1400 1398 1397 1397 1396 1395 1394 1393 1393 1393 1393 1392 1391 1390 1389 1389 1389 1389 1389 1389 1389 1389
1429 1428 1426 1425 1423 1422 1420 1419 1417 1415 1413 1411 1409 1407 1405 1403 1402 1401 1399 1398 1396 1395 1394 1392 1392 1391 1390 1388 1388 1387 1386 1386 1385 1385 1384 1383 1383 1383 1383 1383 1383 1382 1381
1426 1425 1423 1422 1420 1418 1417 1416 1414 1412 1411 1409 1407 1405 1403 1401 1399 1398 1396 1394 1393 1391 1389 1388 1386 1385 1384 1383 1382 1381 1381 1380 1380 1379 1378 1378 1377 1377 1377 1377 1377 1377 1376
1423 1421 1420 1418 1417 1415 1413 1412 1410 1409 1407 1405 1404 1402 1399 1398 1396 1394 1392 1390 1388 1387 1385 1383 1382 1380 1379 1378 1377 1376 1375 1375 1374 1373 1373 1372 1372 1371 1371 1372 1372 1371 1370
1420 1418 1417 1415 1414 1412 1410 1408 1406 1405 1403 1401 1399 1397 1395 1393 1392 1390 1388 1386 1384 1382 1381 1379 1378 1376 1375 1374 1373 1372 1370 1370 1369 1368 1367 1367 1366 1366 1366 1366 1365 1365 1364
1417 1415 1414 1412 1410 1408 1407 1405 1403 1400 1398 1396 1395 1393 1391 1389 1387 1385 1383 1381 1379 1378 1376 1375 1373 1372 1370 1369 1368 1367 1366 1365 1364 1363 1362 1361 1361 1361 1360 1360 1360 1359 1359
1413 1412 1410 1409 1407 1405 1403 1401 1399 1397 1395 1392 1390 1388 1387 1385 1383 1381 1379 1377 1375 1373 1372 1371 1369 1368 1366 1365 1364 1362 1361 1360 1358 1358 1357 1356 1356 1356 1355 1355 1354 1354 1354
1410 1408 1407 1405 1403 1401 1400 1398 1396 1394 1391 1389 1387 1385 1382 1380 1378 1376 1374 1373 1371 1369 1368 1366 1365 1364 1362 1361 1359 1357 1356 1355 1354 1353 1352 1351 1351 1350 1350 1349 1349 1349 1349
1407 1405 1403 1402 1400 1398 1396 1394 1392 1390 1388 1386 1384 1382 1380 1377 1375 1372 1370 1368 1367 1365 1363 1362 1360 1359 1357 1356 1354 1352 1351 1350 1348 1348 1347 1346 1346 1345 1345 1344 1344 1344 1344
1404 1402 1400 1398 1396 1395 1393 1391 1389 1387 1384 1382 1380 1378 1376 1373 1371 1369 1366 1364 1362 1360 1359 1357 1355 1354 1352 1351 1349 1348 1346 1345 1343 1343 1342 1341 1341 1340 1340 1340 1339 1339 1339
1400 1399 1397 1395 1393 1391 1389 1387 1385 1383 1381 1378 1376 1374 1372 1369 1367 1365 1362 1360 1358 1356 1354 1352 1350 1349 1347 1346 1345 1343 1342 1340 1339 1338 1337 1336 1336 1335 1335 1335 1334 1334 1334
1397 1395 1394 1392 1390 1388 1386 1383 1381 1379 1377 1375 1372 1370 1368 1366 1363 1361 1358 1356 1354 1352 1350 1348 1346 1344 1343 1342 1340 1339 1337 1336 1335 1334 1333 1332 1331 1331 1331 1331 1330 1330 1329
1394 1392 1390 1388 1386 1384 1382 1380 1378 1375 1373 1371 1369 1366 1364 1362 1359 1357 1354 1352 1350 1348 1346 1344 1342 1340 1338 1337 1336 1334 1333 1332 1331 1330 1329 1328 1327 1327 1327 1326 1326 1326 1326
1390 1388 1387 1385 1383 1380 1378 1376 1374 1372 1370 1367 1365 1363 1361 1358 1356 1353 1351 1349 1347 1344 1342 1340 1338 1336 1335 1333 1331 1330 1329 1328 1327 1326 1325 1324 1324 1323 1323 1323 1323 1323 1324